Location: Argonnex
(45.9500°N, 6.1333°E)
Time: 05:49:30
(UTC+00:00)

Cosmos 2266 Rocket - Pass Details

Date: 13 August 2024
Orbit: 933 x 1008 km, 82.9° (Epoch: 08 September)

Event Time Altitude Azimuth Distance (km) Brightness Sun altitude
Rises 23:44:31 0° 359° (N) 3,601 8.2 -29.8°
Reaches altitude 10° 23:47:24 10° 11° (NNE) 2,654 7.2 -29.8°
Maximum altitude 23:52:32 28° 70° (ENE) 1,680 5.4 -29.7°
Enters shadow 23:54:07 25° 95° (E) 1,798 5.3 -29.7°
